W5CRT Weather Reports


time (UTC)temp
F
wind
direction
speed
knots
gust
knots
rain 1hr
in
rain 24hr
in
rain mn
in
humidity
%
barometer
mb
20260509080710 69 122 4.3 4.3 0.00 0.00 0.00 89 1007.2
20260509080208 69 120 1.7 3.5 0.00 0.00 0.00 89 1007.6
20260509075706 69 124 2.6 3.5 0.00 0.00 0.00 89 1007.7
20260509075203 69 128 2.6 3.5 0.00 0.00 0.00 89 1008.0
20260509074700 69 104 1.7 1.7 0.00 0.00 0.00 90 1008.0
20260509074156 69 134 0.0 1.7 0.00 0.00 0.00 90 1008.3
20260509073653 69 108 1.7 2.6 0.00 0.00 0.00 90 1008.5
20260509073149 69 109 1.7 1.7 0.00 0.00 0.00 90 1008.7
20260509072646 69 101 0.9 0.9 0.00 0.00 0.00 90 1008.7
20260509072143 69 93 1.7 1.7 0.00 0.00 0.00 90 1008.8
20260509071640 68 109 1.7 1.7 0.00 0.00 0.00 90 1008.9
20260509071137 68 88 1.7 2.6 0.00 0.00 0.00 91 1009.0
20260509070634 68 103 1.7 2.6 0.00 0.00 0.00 91 1008.8
20260509070130 68 84 1.7 3.5 0.00 0.00 0.00 90 1008.7
20260509065626 68 50 1.7 1.7 0.00 0.00 0.00 90 1008.5
20260509065122 68 95 0.9 2.6 0.00 0.00 0.00 90 1008.5
20260509064620 68 102 1.7 1.7 0.00 0.00 0.00 88 1008.2
20260509064118 68 122 1.7 1.7 0.00 0.00 0.00 88 1008.2
20260509063614 69 106 1.7 1.7 0.00 0.00 0.00 88 1007.9
20260509063111 69 183 0.9 0.9 0.00 0.00 0.00 87 1007.8
20260509062608 69 136 0.0 1.7 0.00 0.00 0.00 87 1007.6
20260509062105 69 97 0.9 3.5 0.00 0.00 0.00 87 1007.6
20260509061602 69 114 2.6 3.5 0.00 0.00 0.00 87 1007.7
20260509061059 70 156 3.5 3.5 0.00 0.00 0.00 87 1007.9
20260509060557 70 136 0.0 1.7 0.00 0.00 0.00 86 1008.2
20260509060052 70 157 0.0 1.7 0.00 0.00 0.00 86 1008.2
20260509055548 70 148 1.7 2.6 0.00 0.00 0.00 86 1008.5
20260509055044 70 198 0.9 2.6 0.00 0.00 0.00 86 1008.5
20260509054541 70 176 0.9 1.7 0.00 0.00 0.00 86 1008.6
20260509054039 70 188 0.0 1.7 0.00 0.00 0.00 86 1008.2
20260509053537 70 202 1.7 1.7 0.00 0.00 0.00 86 1008.7
20260509053034 70 132 1.7 1.7 0.00 0.00 0.00 86 1008.7
20260509052531 70 166 0.0 0.9 0.00 0.00 0.00 86 1009.1
20260509052029 70 231 0.9 1.7 0.00 0.00 0.00 86 1008.9
20260509051527 70 193 0.0 1.7 0.00 0.00 0.00 86 1008.6
20260509051024 70 164 0.0 1.7 0.00 0.00 0.00 86 1008.8
20260509050521 70 343 0.0 1.7 0.00 0.00 0.00 86 1009.2
20260509050017 70 80 1.7 1.7 0.00 0.00 0.00 85 1008.8
20260509045514 70 101 2.6 2.6 0.00 0.01 0.01 85 1008.7
20260509045011 70 104 0.9 2.6 0.00 0.01 0.01 84 1008.5
20260509044509 71 104 2.6 3.5 0.00 0.01 0.01 83 1008.2
20260509044007 71 35 0.9 1.7 0.02 0.01 0.01 82 1008.0
20260509043502 71 172 1.7 3.5 0.02 0.01 0.01 82 1007.5
20260509042957 71 144 1.7 4.3 0.00 0.01 0.01 82 1007.6
20260509042455 71 177 1.7 3.5 0.00 0.01 0.01 81 1007.1
20260509041950 71 174 5.2 13.0 0.00 0.01 0.01 80 1006.4
20260509041448 71 117 1.7 6.1 0.00 0.01 0.01 81 1006.9
20260509040946 71 179 3.5 4.3 0.00 0.01 0.01 81 1007.5
20260509040444 71 113 0.0 5.2 0.00 0.01 0.01 81 1007.9
20260509035940 71 153 1.7 2.6 0.00 0.01 0.01 82 1008.3
20260509035437 71 140 1.7 2.6 0.00 0.01 0.01 82 1008.3
20260509034933 71 156 2.6 3.5 0.00 0.01 0.01 82 1008.5
20260509034431 71 136 1.7 1.7 0.00 0.01 0.01 82 1008.8
20260509033928 70 119 1.7 1.7 0.00 0.01 0.01 82 1009.0
20260509033425 70 98 1.7 1.7 0.00 0.01 0.01 82 1009.0
20260509032921 70 23 1.7 1.7 0.00 0.01 0.01 82 1008.7
20260509032419 70 230 0.0 0.0 0.00 0.01 0.01 82 1008.3
20260509031917 71 164 0.0 0.9 0.00 0.01 0.01 82 1008.3
20260509031414 71 224 0.0 0.9 0.00 0.01 0.01 82 1008.5
20260509030911 71 117 0.0 0.0 0.00 0.01 0.01 81 1007.9
20260509030409 71 106 0.0 0.9 0.00 0.01 0.01 81 1007.8
20260509025906 71 79 0.9 1.7 0.00 0.01 0.01 81 1008.1
20260509025402 71 106 1.7 2.6 0.00 0.01 0.01 80 1008.0
20260509024857 71 104 0.9 1.7 0.00 0.01 0.01 80 1007.8
20260509024353 71 125 1.7 2.6 0.00 0.01 0.01 80 1007.9
20260509023850 71 105 0.9 2.6 0.00 0.01 0.01 80 1007.7
20260509023348 71 100 0.9 1.7 0.00 0.01 0.01 79 1007.9
20260509022844 71 76 0.0 1.7 0.00 0.01 0.01 78 1007.3
20260509022341 71 162 0.9 1.7 0.00 0.01 0.01 78 1007.4
20260509021838 71 185 1.7 3.5 0.00 0.01 0.01 77 1007.3
20260509021335 72 154 1.7 1.7 0.00 0.01 0.01 77 1007.3
20260509020833 72 141 0.9 2.6 0.00 0.01 0.01 77 1007.3
20260509020331 72 136 0.9 1.7 0.00 0.01 0.01 76 1007.2
20260509015828 72 48 0.0 1.7 0.00 0.01 0.01 76 1007.2
20260509015326 72 144 0.9 2.6 0.00 0.01 0.01 76 1007.4
20260509014823 72 175 0.9 1.7 0.00 0.01 0.01 75 1007.1
20260509014320 72 127 1.7 2.6 0.00 0.01 0.01 76 1007.0
20260509013816 72 124 0.0 1.7 0.00 0.01 0.01 75 1007.0
20260509013313 72 175 0.9 1.7 0.00 0.01 0.01 75 1006.9
20260509012809 72 133 1.7 2.6 0.00 0.01 0.01 74 1007.0
20260509012307 72 133 1.7 2.6 0.00 0.01 0.01 74 1007.2
20260509011803 73 129 0.9 3.5 0.00 0.01 0.01 73 1006.9
20260509011300 73 136 1.7 3.5 0.00 0.01 0.01 73 1006.7
20260509010758 73 139 1.7 2.6 0.00 0.01 0.01 73 1007.0
20260509010255 73 128 0.9 1.7 0.00 0.01 0.01 73 1006.7
20260509005752 73 153 0.9 2.6 0.00 0.01 0.01 72 1006.9
20260509005250 74 188 1.7 1.7 0.00 0.01 0.01 71 1006.5
20260509004749 74 165 1.7 3.5 0.00 0.01 0.01 70 1006.3
20260509004247 74 141 1.7 4.3 0.00 0.01 0.01 69 1006.4
20260509003745 75 178 2.6 3.5 0.00 0.01 0.01 69 1006.5
20260509003242 75 187 1.7 4.3 0.00 0.01 0.01 68 1006.3
20260509002739 75 173 0.0 2.6 0.00 0.01 0.01 67 1006.2
20260509002237 75 157 2.6 5.2 0.00 0.01 0.01 66 1006.5
20260509001734 75 148 4.3 4.3 0.00 0.01 0.01 66 1006.3
20260509001230 76 175 2.6 4.3 0.00 0.01 0.01 65 1006.3
20260509000728 75 148 2.6 4.3 0.00 0.01 0.01 65 1006.3
20260509000226 76 147 2.6 5.2 0.00 0.01 0.01 65 1006.5
20260508235722 76 121 0.9 5.2 0.00 0.01 0.01 65 1006.6
20260508235218 76 153 0.9 5.2 0.00 0.01 0.01 66 1006.6
20260508234716 76 158 1.7 6.1 0.00 0.01 0.01 67 1006.8
20260508234212 76 157 3.5 4.3 0.00 0.01 0.01 67 1006.8
20260508233712 76 167 1.7 4.3 0.00 0.01 0.01 68 1007.1
20260508233209 75 133 1.7 5.2 0.00 0.01 0.01 69 1006.7
20260508232706 75 154 0.9 5.2 0.00 0.01 0.01 70 1007.0
20260508232202 74 183 2.6 7.0 0.00 0.01 0.01 69 1007.0
20260508231701 74 186 1.7 11.3 0.00 0.01 0.01 70 1007.1
20260508231157 75 197 3.5 7.8 0.00 0.01 0.01 69 1006.8
20260508230654 76 213 4.3 7.8 0.00 0.01 0.01 68 1006.9
20260508230150 77 215 2.6 7.0 0.00 0.01 0.01 67 1007.0
20260508225648 77 315 0.9 6.1 0.00 0.01 0.01 65 1006.9
20260508225144 78 181 2.6 5.2 0.00 0.01 0.01 63 1007.1
20260508224642 79 202 1.7 4.3 0.00 0.01 0.01 63 1007.0
20260508224140 78 157 4.3 5.2 0.00 0.01 0.01 63 1007.2
20260508223637 79 215 5.2 7.0 0.00 0.01 0.01 61 1007.1
20260508223134 80 176 1.7 3.5 0.00 0.01 0.01 61 1007.2
20260508222632 80 187 2.6 5.2 0.00 0.01 0.01 60 1006.9
20260508222128 79 216 1.7 3.5 0.00 0.01 0.01 60 1007.0
20260508221625 79 169 3.5 5.2 0.00 0.01 0.01 60 1006.5
20260508221120 80 214 2.6 5.2 0.00 0.01 0.01 60 1006.8
20260508220617 80 247 1.7 4.3 0.00 0.01 0.01 60 1006.7
20260508220114 79 133 3.5 3.5 0.00 0.01 0.01 60 1006.8
20260508215611 78 125 3.5 3.5 0.00 0.01 0.01 61 1006.7
20260508215107 78 99 1.7 4.3 0.00 0.01 0.01 62 1006.3
20260508214605 78 142 2.6 3.5 0.00 0.01 0.01 62 1006.4
20260508214101 78 164 3.5 5.2 0.00 0.01 0.01 61 1006.7
20260508213558 78 160 5.2 7.8 0.00 0.01 0.01 60 1006.9
20260508213054 78 197 2.6 5.2 0.00 0.01 0.01 63 1007.2
20260508212551 78 151 1.7 3.5 0.00 0.01 0.01 63 1007.4
20260508212047 76 143 2.6 4.3 0.00 0.01 0.01 67 1007.3
20260508211543 74 268 0.0 3.5 0.00 0.01 0.01 68 1007.7
20260508211039 75 182 1.7 9.6 0.00 0.01 0.01 67 1007.9
20260508210536 74 195 1.7 4.3 0.00 0.01 0.01 67 1008.1
20260508210034 75 190 1.7 6.1 0.00 0.01 0.01 66 1008.5
20260508205530 75 214 2.6 5.2 0.00 0.01 0.01 66 1008.0
20260508205026 75 182 3.5 8.7 0.00 0.01 0.01 65 1008.6
20260508204524 75 194 1.7 7.8 0.00 0.01 0.01 65 1008.3
20260508204019 76 176 1.7 8.7 0.00 0.01 0.01 64 1008.8
20260508203515 76 218 5.2 7.0 0.00 0.01 0.01 63 1008.7
20260508203011 76 210 6.1 7.0 0.00 0.01 0.01 63 1008.5
20260508202509 77 206 7.0 8.7 0.00 0.01 0.01 61 1008.5
20260508202005 78 255 1.7 7.0 0.00 0.01 0.01 60 1008.8
20260508201502 78 213 1.7 4.3 0.00 0.01 0.01 62 1008.8
20260508200959 79 209 4.3 11.3 0.00 0.01 0.01 58 1008.5
20260508200456 79 158 2.6 6.1 0.00 0.01 0.01 59 1008.8
20260508195950 79 197 4.3 6.1 0.00 0.01 0.01 59 1009.1
20260508195448 79 214 5.2 5.2 0.00 0.01 0.01 58 1008.8
20260508194944 79 250 3.5 4.3 0.00 0.01 0.01 60 1008.9
20260508194442 77 242 4.3 5.2 0.00 0.01 0.01 61 1009.2
20260508193938 78 211 5.2 6.1 0.00 0.01 0.01 59 1009.2
20260508193435 79 224 1.7 3.5 0.00 0.01 0.01 57 1009.1
20260508192932 79 136 1.7 4.3 0.00 0.01 0.01 56 1009.1
20260508192429 79 187 3.5 6.1 0.00 0.01 0.01 55 1009.4
20260508191925 80 213 1.7 4.3 0.00 0.01 0.01 56 1009.3
20260508191423 80 187 2.6 3.5 0.00 0.01 0.01 57 1009.3
20260508190919 80 143 4.3 5.2 0.00 0.01 0.01 56 1009.3
20260508190417 79 162 1.7 5.2 0.00 0.01 0.01 57 1009.4
20260508185913 79 107 2.6 5.2 0.00 0.01 0.01 58 1009.0
20260508185410 78 118 1.7 5.2 0.00 0.01 0.01 58 1009.3
20260508184908 78 171 1.7 2.6 0.00 0.01 0.01 56 1009.6
20260508184405 78 106 1.7 2.6 0.00 0.01 0.01 56 1009.6
20260508183901 78 121 2.6 4.3 0.00 0.01 0.01 57 1009.6
20260508183358 80 161 1.7 5.2 0.00 0.01 0.01 55 1009.8
20260508182853 80 267 1.7 6.1 0.00 0.01 0.01 57 1009.7
20260508182351 79 102 0.9 5.2 0.00 0.01 0.01 59 1009.9
20260508181846 79 194 3.5 4.3 0.00 0.01 0.01 57 1009.9
20260508181343 79 177 2.6 3.5 0.00 0.01 0.01 56 1010.0
20260508180840 79 93 2.6 3.5 0.00 0.01 0.01 56 1010.1
20260508180337 77 135 0.0 2.6 0.00 0.01 0.01 58 1010.2
20260508175833 77 188 0.9 5.2 0.00 0.01 0.01 58 1010.3
20260508175330 77 215 3.5 7.0 0.00 0.01 0.01 56 1010.4
20260508174828 76 159 1.7 4.3 0.00 0.01 0.01 59 1010.4
20260508174325 77 129 2.6 3.5 0.00 0.01 0.01 59 1010.3
20260508173821 76 113 2.6 4.3 0.00 0.01 0.01 59 1010.3
20260508173319 75 148 2.6 4.3 0.00 0.01 0.01 58 1010.6
20260508172814 74 214 0.0 2.6 0.00 0.01 0.01 63 1010.7
20260508172312 74 217 1.7 2.6 0.00 0.01 0.01 60 1010.9
20260508171808 74 140 0.0 1.7 0.00 0.01 0.01 62 1011.0
20260508171304 73 146 2.6 5.2 0.00 0.01 0.01 59 1011.0
20260508170801 74 177 2.6 4.3 0.00 0.01 0.01 60 1011.3
20260508170259 74 121 2.6 5.2 0.00 0.01 0.01 59 1011.4
20260508165755 76 158 4.3 5.2 0.00 0.01 0.01 58 1011.5
20260508165253 75 144 1.7 5.2 0.00 0.01 0.01 61 1011.4
20260508164749 74 94 0.0 6.1 0.00 0.01 0.01 61 1011.8
20260508164246 73 145 2.6 4.3 0.00 0.01 0.01 61 1011.6
20260508163744 73 168 2.6 5.2 0.00 0.01 0.01 60 1011.7
20260508163241 73 161 2.6 7.0 0.00 0.01 0.01 61 1011.7
20260508162737 73 151 7.8 7.8 0.00 0.01 0.01 62 1011.9
20260508162234 74 182 1.7 5.2 0.00 0.01 0.01 61 1011.9
20260508161731 73 145 3.5 4.3 0.00 0.01 0.01 62 1012.1
20260508161228 73 153 3.5 7.0 0.00 0.01 0.01 62 1012.2
20260508160726 72 186 3.5 7.0 0.00 0.01 0.01 64 1012.1
20260508160224 71 137 1.7 5.2 0.00 0.01 0.01 65 1012.2
20260508155720 71 159 2.6 4.3 0.00 0.01 0.01 64 1012.2
20260508155218 72 218 2.6 4.3 0.00 0.01 0.01 64 1012.3
20260508154714 72 256 2.6 9.6 0.00 0.01 0.01 64 1012.0
20260508154212 71 155 3.5 7.8 0.00 0.01 0.01 64 1012.0
20260508153708 70 180 1.7 5.2 0.00 0.01 0.01 66 1011.8
20260508153205 71 176 2.6 6.1 0.00 0.01 0.01 65 1012.4
20260508152702 71 219 2.6 5.2 0.00 0.01 0.01 65 1012.3
20260508152157 71 141 3.5 4.3 0.00 0.01 0.01 64 1012.4
20260508151654 72 128 1.7 3.5 0.00 0.01 0.01 63 1012.4
20260508151151 72 149 4.3 5.2 0.00 0.01 0.01 61 1012.3
20260508150648 72 148 3.5 3.5 0.00 0.01 0.01 64 1012.3
20260508150144 71 226 1.7 2.6 0.00 0.01 0.01 67 1012.2
20260508145640 71 120 1.7 3.5 0.00 0.01 0.01 66 1012.0
20260508145137 69 105 1.7 3.5 0.00 0.01 0.01 68 1012.4
20260508144634 69 88 1.7 2.6 0.00 0.01 0.01 69 1012.7
20260508144132 69 208 2.6 5.2 0.00 0.01 0.01 69 1012.5
20260508143629 69 126 3.5 3.5 0.00 0.01 0.01 69 1012.4
20260508143126 68 138 3.5 4.3 0.00 0.01 0.01 69 1012.2
20260508142622 68 159 1.7 3.5 0.00 0.01 0.01 70 1012.5
20260508142119 68 82 2.6 4.3 0.00 0.01 0.01 71 1012.4
20260508141616 68 181 2.6 4.3 0.00 0.01 0.01 74 1012.6
20260508141114 66 124 1.7 4.3 0.00 0.01 0.01 77 1012.6
20260508140611 65 141 3.5 4.3 0.00 0.01 0.01 77 1012.8
20260508140107 65 139 1.7 2.6 0.00 0.01 0.01 78 1012.6
20260508135602 64 159 3.5 3.5 0.00 0.01 0.01 78 1012.5
20260508135059 64 134 1.7 5.2 0.00 0.01 0.01 80 1012.4
20260508134556 64 165 1.7 3.5 0.00 0.01 0.01 81 1012.6
20260508134053 63 120 0.0 2.6 0.00 0.01 0.01 83 1012.7
20260508133549 63 97 1.7 3.5 0.00 0.01 0.01 84 1012.5
20260508133047 62 118 2.6 4.3 0.00 0.01 0.01 85 1012.3
20260508132545 62 147 2.6 5.2 0.00 0.01 0.01 87 1012.3
20260508132041 62 114 2.6 3.5 0.00 0.01 0.01 88 1012.5
20260508131536 61 325 0.0 1.7 0.00 0.01 0.01 88 1013.2
20260508131033 61 149 0.9 2.6 0.00 0.01 0.01 88 1012.8
20260508130531 61 23 1.7 2.6 0.00 0.01 0.01 88 1012.7
20260508130027 61 95 2.6 3.5 0.00 0.01 0.01 87 1012.6
20260508125522 61 113 1.7 1.7 0.00 0.01 0.01 86 1012.9
20260508125021 61 148 0.0 1.7 0.00 0.01 0.01 87 1013.0
20260508124518 61 112 1.7 2.6 0.00 0.01 0.01 86 1013.1
20260508124015 61 114 1.7 2.6 0.00 0.01 0.01 86 1012.7
20260508123514 61 139 2.6 5.2 0.00 0.01 0.01 87 1012.8
20260508123010 61 139 2.6 2.6 0.00 0.01 0.01 88 1012.8
20260508122507 61 123 2.6 2.6 0.00 0.01 0.01 87 1013.1
20260508122004 60 106 1.7 4.3 0.00 0.01 0.01 88 1013.1
20260508121502 60 140 1.7 3.5 0.00 0.01 0.01 89 1012.8
20260508121000 60 144 0.0 2.6 0.00 0.01 0.01 90 1012.9
20260508120457 60 136 1.7 4.3 0.00 0.01 0.01 90 1012.3
20260508115955 60 143 2.6 4.3 0.00 0.01 0.01 90 1012.6
20260508115452 60 117 0.0 1.7 0.00 0.01 0.01 90 1013.0
20260508114949 60 147 0.0 0.9 0.00 0.01 0.01 90 1012.8
20260508114446 60 137 0.0 2.6 0.00 0.01 0.01 90 1012.9
20260508113942 61 126 1.7 3.5 0.00 0.01 0.01 90 1012.6
20260508113440 61 115 1.7 3.5 0.00 0.01 0.01 90 1012.3
20260508112937 61 118 2.6 4.3 0.00 0.01 0.01 90 1012.5
20260508112434 61 96 2.6 3.5 0.00 0.01 0.01 89 1012.7
20260508111930 61 151 2.6 3.5 0.05 0.01 0.01 89 1013.1
20260508111428 61 114 0.9 2.6 0.05 0.01 0.01 89 1013.2
20260508110925 61 125 1.7 2.6 0.00 0.00 0.00 88 1013.3
20260508110423 61 81 2.6 3.5 0.00 0.00 0.00 88 1013.3
20260508105921 61 125 1.7 4.3 0.00 0.00 0.00 89 1013.7
20260508105418 61 255 1.7 5.2 0.00 0.00 0.00 89 1013.9
20260508104915 61 124 0.0 2.6 0.00 0.00 0.00 89 1012.9
20260508104413 61 122 0.0 2.6 0.00 0.00 0.00 89 1013.0
20260508103910 60 286 1.7 3.5 0.00 0.00 0.00 90 1012.7
20260508103407 60 166 1.7 1.7 0.00 0.00 0.00 90 1011.9
20260508102904 60 109 1.7 1.7 0.00 0.00 0.00 90 1011.8
20260508102402 60 122 0.9 2.6 0.00 0.00 0.00 90 1012.0
20260508101859 60 167 2.6 3.5 0.00 0.00 0.00 90 1011.6
20260508101356 60 159 3.5 4.3 0.00 0.00 0.00 90 1011.6
20260508100854 60 129 3.5 5.2 0.00 0.00 0.00 90 1011.4
20260508100353 60 133 2.6 3.5 0.00 0.00 0.00 90 1011.2
20260508095848 60 128 1.7 3.5 0.00 0.00 0.00 91 1011.5
20260508095346 60 127 1.7 2.6 0.00 0.00 0.00 91 1011.6
20260508094842 60 141 1.7 2.6 0.00 0.00 0.00 91 1011.9
20260508094339 60 104 1.7 2.6 0.00 0.00 0.00 91 1012.2
20260508093836 60 104 0.9 1.7 0.00 0.00 0.00 91 1012.1
20260508093334 60 93 1.7 2.6 0.00 0.00 0.00 90 1012.1
20260508092831 60 117 1.7 1.7 0.00 0.00 0.00 89 1011.9
20260508092329 60 93 1.7 1.7 0.00 0.00 0.00 89 1012.1
20260508091827 60 120 0.9 1.7 0.00 0.00 0.00 89 1012.2
20260508091323 60 256 1.7 2.6 0.00 0.00 0.00 89 1012.2
20260508090821 60 192 0.9 2.6 0.00 0.00 0.00 88 1012.4
20260508090320 61 64 0.0 2.6 0.00 0.00 0.00 88 1012.0
20260508085814 61 124 4.3 5.2 0.00 0.00 0.00 88 1011.7
20260508085312 61 103 0.9 3.5 0.00 0.00 0.00 87 1012.2
20260508084808 61 120 1.7 2.6 0.00 0.00 0.00 87 1012.3
20260508084305 61 135 1.7 3.5 0.00 0.00 0.00 87 1012.2
20260508083803 61 117 1.7 3.5 0.00 0.00 0.00 86 1012.5
20260508083300 61 131 1.7 6.1 0.00 0.00 0.00 86 1012.5
20260508082759 61 129 2.6 4.3 0.00 0.00 0.00 86 1012.6
20260508082258 61 106 1.7 1.7 0.00 0.00 0.00 86 1013.1
20260508081755 61 138 2.6 2.6 0.00 0.00 0.00 85 1013.3
20260508081251 61 173 1.7 3.5 0.00 0.00 0.00 85 1013.5